Погода в Вольнянске

Украина / Запорожская область     47°56′29″N   35°25′52″E
темп.,
°C
ветер,
м/с
пор.,
м/с
влажн.,
%
обл.,
%
осадки,
мм/ч
давл.,
гПа
погр.,
м
18 сентября, сб
сб1800:00+15ю5115116 0.0 1013265
03:00+14ю486157 0.0 1013132
06:00+13ю4867100 0.0 1013125
09:00+18ююв5854100 0.0 1012434
12:00+23ююв6733100 0.0 10111382
15:00+25ю893199 0.0 10092114
18:00+22ю71041100 0.0 1010930
21:00+17юв51163100 0.0 1010337
19 сентября, вс
вс1900:00+18ююв71056100 0.0 1009492
03:00+18ююв61262100 0.3 1008599
06:00+18ю598267 1.1 1008571
09:00+18юз347663 1.8 1008462
12:00+22зсз4554100 0.0 10081403
15:00+24з453632 0.0 10082213
18:00+23юз573869 0.0 1008491
21:00+18зюз366098 0.4 1009231
20 сентября, пн
пн2000:00+16юз367462 0.4 1008106
03:00+15юз357353 0.4 100883
06:00+13з48859 0.0 1008243
09:00+14з4577100 0.0 1010396
12:00+18зюз684961 0.0 10101473
15:00+18зюз71044100 0.0 10091689
18:00+15зсз68465 0.0 1010884
21:00+10сз38595 0.0 1012188
21 сентября, вт
вт2100:00+8зсз387349 0.0 1013248
03:00+8зюз227794 0.0 101421
06:00+7з379016 0.0 1014149
09:00+11з4672100 0.0 1014588
12:00+13зсз5663100 0.0 1015979
15:00+15з5749100 0.0 10141772
18:00+12зсз6760100 0.0 1015992
21:00+10зсз6857100 0.0 1017899
22 сентября, ср
ср2200:00+7зсз688291 0.0 1018722
03:00+7зсз5980100 0.1 1018771
06:00+7зсз5778100 0.1 1018871
09:00+7з5876100 0.1 1018757
12:00+8зсз6773100 0.0 1018985
15:00+9зсз5666100 0.1 10171196
18:00+8сз4673100 0.0 1017693
21:00+8з2472100 0.0 1017505